www.pogodaiklimat.ru

Погода и климат >> Архив погоды >> Россия >> Красноярский край >> Кемчуг


ПОГОДА в Кемчуге

  • Прогноз погоды в Кемчуге
  • Монитор погоды в Кемчуге

АРХИВ ПОГОДЫ в Кемчуге

Время (UTC), дата Ветер
(напр.,м/с)
 
Видим.   Явления Облачность Т
(С)
Тd
(С)
f
(%)
Тe
(С)
Тes
(С)
Комфортность P
(гПа)
Po
(гПа)
Тmin
(С)
Tmax
(С)
R
(мм)
R24
(мм)
S
(см)
00 15.07 ЮВ 1 20 км 8/8 600 м
[Cb cap]
+12.9 +10.7 86 +13 +13 1009.0 970.0 +9.2
03 15.07 С 2 20 км 8/6 600 м
[Cb cap Cs]
+16.3 +11.2 72 +16 +20 1008.7 970.3
06 15.07 С 4 20 км 8/8 600 м
[Cb cap]
+19.0 +12.2 65 +20 +22 1007.7 969.7
09 15.07 В 2 20 км 8/8 600 м
[Cb cap]
+19.8 +13.8 68 +22 +24 комфорт 1007.4 969.5
12 15.07 С 3 4000 м в посл. час гроза {ливн. осадки} 10/10 600 м
[Cb cap]
+17.6 +13.7 78 +18 +18 1007.6 969.3 +20.6 1
15 15.07 С 2 4000 м дым 8/8 600 м
[Cb cap]
+15.4 +13.9 91 +15 +15 1008.0 969.4
18 15.07 С 1 4000 м дым 10/10 600 м
[Cb cap]
+14.4 +13.7 96 +15 +15 1007.8 969.1
21 15.07 С 2 4000 м дым 10/8 600 м
[Cb cap As trans]
+14.0 +13.2 95 +13 +13 1006.7 968.1
00 16.07 С 2 4000 м дым 9/9 600 м
[Cb cap]
+15.5 +13.6 88 +15 +16 1006.4 967.9 +13.9
03 16.07 Ю 2 4000 м дым 9/9 600 м
[Cb cap]
+18.5 +14.2 76 +20 +21 1005.6 967.5
06 16.07 В 2 4000 м дым 8/8 600 м
[Cb cap]
+21.7 +12.7 57 +24 +27 комфорт 1005.0 967.3
09 16.07 В 3 20 км 5/5 600 м
[Cb cap]
+23.5 +11.2 46 +25 +29 комфорт 1004.6 967.2
12 16.07 В 3 20 км 4/3 600 м
[Cb cap Ci sp]
+22.5 +14.1 59 +26 +27 жарко 1005.2 967.6 +24.4
15 16.07 В 2 20 км 10/8 600 м
[Cb cap As op]
+19.4 +15.0 76 +22 +22 комфорт 1006.0 968.0
18 16.07 В 1 50 км 8/8 600 м
[Cb cap]
+18.0 +14.6 81 +19 +19 1005.6 967.5
21 16.07 штиль 0 20 км 10/10 600 м
[Cb cap]
+15.9 +14.3 90 +16 +16 1005.5 967.1
00 17.07 С 2 20 км 10/8 600 м
[Cb cap As trans]
+17.3 +15.0 86 +18 +18 1004.8 966.7 +15.2
03 17.07 СВ 2 20 км 8/8 600 м
[Cb cap]
+20.7 +15.7 73 +24 +26 комфорт 1003.8 966.2
06 17.07 Ю 3 10 км слаб. ливневой дождь 10/10 600 м
[Cb cap]
+21.2 +16.0 72 +25 +25 комфорт 1003.9 966.3
09 17.07 ЮЗ 3 20 км {ливн. осадки} 10/10 600 м
[Cb cap]
+17.2 +15.5 90 +17 +17 1005.7 967.5
12 17.07 Ю 2 20 км {ливн. осадки} 8/6 600 м
[Cb cap Ci sp]
+18.7 +15.2 80 +20 +21 1005.9 967.9 +23.6 0.3
15 17.07 СВ 1 20 км 8/8 600 м
[Cb cap]
+15.7 +14.8 94 +16 +16 1006.5 968.1
18 17.07 В 2 50 км 8/8 600 м
[Cb cap]
+15.3 +14.3 94 +15 +15 1006.2 967.7
21 17.07 штиль 0 20 км 8/8 600 м
[Cb cap]
+14.1 +13.4 96 +14 +14 1006.2 967.6
00 18.07 С 1 20 км 8/5 600 м
[Cb cap Ci sp]
+16.1 +14.7 91 +17 +18 1006.2 967.8 +13.8
03 18.07 Ю 2 20 км 6/5 600 м
[Cb calv Ci fib]
+21.1 +15.4 70 +24 +29 комфорт 1006.0 968.3
06 18.07 Ю 2 20 км 6/6 1000 м
[Cu med, cong]
+24.7 +14.0 51 +27 +33 жарко 1005.3 968.1
09 18.07 В 2 20 км 5/5 1000 м
[Cu med, cong]
+26.9 +13.8 44 +29 +34 жарко 1004.1 967.2
12 18.07 Ю 2 20 км 5/3 600 м
[Cb cap Ci fib]
+26.6 +13.3 44 +29 +30 жарко 1003.9 966.9 +27.0
15 18.07 В 1 20 км 8/8 600 м
[Cb cap]
+20.9 +15.4 71 +25 +25 комфорт 1004.8 967.1
18 18.07 штиль 0 50 км гроза без осадков 9/9 600 м
[Cb cap]
+18.2 +17.0 93 +19 +19 1005.4 967.3
21 18.07 Ю 2 2000 м дымка {гроза} 6/6 600 м
[Cb cap]
+16.3 +15.7 96 +16 +16 1006.0 967.6
00 19.07 Ю 2 500 м гроза, ливневой дождь туман 10/10 600 м
[Cb cap]
+15.2 +14.6 96 +15 +15 1006.9 968.4 +14.8 1
03 19.07 ЮВ 1 4000 м слаб. ливневой дождь {гроза} 10/10 600 м
[Cb cap]
+17.3 +16.7 96 +18 +18 1006.0 967.8
06 19.07 ЮЗ 1 4000 м слаб. ливневой дождь {гроза} 10/10 600 м
[Cb cap]
+20.2 +16.8 81 +24 +24 комфорт 1006.1 968.3
09 19.07 СЗ 2 20 км {ливн. осадки} 8/8 600 м
[Cb cap]
+22.0 +16.9 73 +26 +28 душно 1005.4 967.8
12 19.07 С 2 20 км {ливн. осадки} 10/10 600 м
[Cb cap]
+21.2 +18.0 82 +25 +25 комфорт 1005.4 967.8 +23.4 7
15 19.07 С 1 20 км 10/8 600 м
[Cb cap As op]
+18.8 +16.7 88 +21 +21 комфорт 1005.8 967.8
18 19.07 СВ 2 50 км в посл. час ливневой дождь 10/10 600 м
[Cb cap]
+18.0 +17.1 94 +19 +19 1005.6 967.5
21 19.07 СВ 4 50 км 10/10 600 м
[Cb cap]
+15.5 +14.3 93 +14 +14 1006.0 967.5
00 20.07 СВ 3
{11}
20 км 10/10 600 м
[Cb cap]
+13.7 +12.0 89 +12 +12 1007.0 968.2 +13.7 0.6
03 20.07 СВ 3 20 км 6/6 600 м
[Cb calv]
+17.3 +11.6 69 +17 +21 1006.4 968.2 +13.5
06 20.07 СВ 3 20 км 9/8 600 м
[Cb cap As trans]
+18.5 +11.1 62 +19 +21 1006.2 968.1
09 20.07 СВ 4 4000 м дым 10/8 600 м
[Cb cap As trans]
+17.2 +10.3 64 +17 +17 1007.6 969.0
12 20.07 С 3 4000 м дым 6/5 600 м
[Cb cap Ci fib]
+14.5 +8.5 67 +14 +14 1009.2 970.5 +19.6
15 20.07 СВ 2 4000 м дым 4/4 600 м
[Cb cap]
+9.5 +7.6 88 +8 +8 1010.2 970.8
18 20.07 В 1 4000 м дым 10/5 600 м
[Cb cap As trans]
+7.3 +6.6 95 +6 +6 1010.2 970.4
21 20.07 СВ 1 4000 м дым 5/5 600 м
[Cb cap]
+6.0 +5.3 95 +5 +5 1009.7 969.7
00 21.07 ЮВ 1 4000 м дым 10/6 600 м
[Cb cap As op]
+8.2 +6.8 91 +7 +8 1008.9 969.2 +5.9
03 21.07 Ю 1 4000 м дым 8/3 600 м
[Cb cap Cs]
+13.4 +9.1 75 +14 +21 1007.0 968.2
06 21.07 З 1 4000 м дым 9/4 600 м
[Cb cap Cs]
+17.4 +7.5 52 +18 +27 1006.2 967.9
09 21.07 ЮВ 4
{10}
4000 м гроза, ливневой дождь 10/10 600 м
[Cb cap]
+10.9 +9.7 92 +8 +8 1007.7 968.5
12 21.07 Ю 1 4000 м дым {гроза, ливн. осадки} 10/6 600 м
[Cb cap As trans]
+12.1 +10.5 90 +12 +12 1008.2 969.2 +18.5 18
15 21.07 В 1 2000 м дымка 10/6 600 м
[Cb cap As op]
+9.6 +9.0 96 +9 +9 1008.4 969.0
18 21.07 штиль 0 2000 м дымка 8/8 600 м
[Cb cap]
+7.0 +6.5 97 +6 +6 1008.2 968.5

 

Местоположение метеостанции Кемчуг (Красноярский край, Россия): широта 56.10 долгота 91.67 высота над уровнем моря 332 м.

В архиве по умолчанию представлена погода в Кемчуге за последнюю неделю. Архивные данные за месяц целиком и за предыдущие месяцы, начиная с января 2011 года, Вы можете получить, выбрав интересующий диапазон дат из раскрывающегося списка и нажав кнопку "Ввод!".


*Определитесь, кто Вы:
робот инопланетянин человек

Внимание! Время в таблицах - всемирное. Для получения местного времени необходимо прибавить поправку, которая равна 7 ч.

Смотрите также архив погоды в соседних городах и на ближайших метеорологических станциях:

Погода в Каче (Красноярский край, Россия) (33 км)
Погода в Шумихе (Красноярский край, Россия) (43 км)
Погода в Емельяново (Красноярский край, Россия) (51 км)
Погода в Минино (Красноярский край, Россия) (66 км)
Погода в Роевом Ручье (Красноярский край, Россия) (67 км)
Погода в Красноярске (Красноярский край, Россия) (68 км)
Погода в Ачинске (Красноярский край, Россия) (74 км)
Погода в Балахте (Красноярский край, Россия) (80 км)
Погода в Назарово (Красноярский край, Россия) (84 км)
Погода в Погорельском Бору (Красноярский край, Россия) (85 км)

Пояснения к столбцам:

Ветер - указаны скорость ветра в м/с - средняя за 10 мин, порывы в срок и между сроками (в фигурных скобках) и направление, откуда дует ветер: С - северный, СВ - северо-восточный, В - восточный, ЮВ - юго-восточный, Ю - южный, ЮЗ - юго-западный, З - западный, СЗ - северо-западный.
Видимость - горизонтальная дальность видимости в метрах или километрах. При видимости от 1 до 10 км при отсутствии осадков обычно наблюдается дымка, при ухудшении видимости до 1 км и менее - туман. В сухую погоду видимость может ухудшаться дымом, пылью или мглою.
Явления - указаны атмосферные явления, наблюдавшиеся в срок или в последний час перед сроком; фигурными скобками обозначены явления, наблюдавшиеся между сроками (за 1-3 часа до срока); квадратными скобками обозначены град или гололедные отложения с указанием их диаметра в мм.
Облачность - указаны через наклонную черту общая и нижняя облачность в баллах и высота нижней границы облаков в метрах; квадратными скобками обозначены формы облаков: Ci - перистые, Cs - перисто-слоистые, Cc - перисто-кучевые, Ac - высококучевые, As - высокослоистые, Sc - слоисто-кучевые, Ns - слоисто-дождевые, Cu - кучевые, Cb - кучево-дождевые. Подробнее классификацию облаков см. в Атласе облаков (PDF).
T - Температура воздуха - температура, измеренная на высоте 2 м над землей.
Td - Температура точки росы - температура, при понижении до которой содержащийся в воздухе водяной пар достигнет насыщения.
f - Относительная влажность воздуха - влажноcть воздуха, измеренная на высоте 2 м над землей.
Te - Эффективная температура - температура, которую ощущает одетый по сезону человек в тени. Характеристика душности погоды. При расчете учитывается влияние влажности воздуха и скорости ветра на теплоощущения человека.
Tes - Эффективная температура на солнце - температура, которую ощущает человек, с поправкой на солнечный нагрев. Характеристика знойности погоды. Зависит от высоты солнца над горизонтом, облачности и скорости ветра. Ночью, в пасмурную погоду, а также при ветре 12 м/с и более поправка равна нулю.
P - Атмосферное давление - приведенное к уровню моря атмосферное давление.
Po - Атмосферное давление - измеренное на уровне метеостанции атмосферное давление.
Tmin - Минимальная температура - минимум температуры воздуха на высоте 2 м над землей.
Tmax - Максимальная температура - максимум температуры воздуха на высоте 2 м над землей.
R - Количество осадков - Количество выпавших осадков за период времени, мм. При наведении курсора мыши на число - период времени, за который выпало указанное количество осадков.
R24 - Количество осадков - Количество выпавших осадков за 24 часа, мм.
S - Снежный покров - Высота снежного покрова, см. При наведении курсора мыши на число - состояние снежного покрова и степень покрытия местности в баллах.